Nature

Haifa Airport (HFA/LLHA) also known as U Michaeli Airport is a small international airport located in Haifa, Israel. It is located to the east of the city.
It mainly serves civilian flights, with some military usage. Most passenger flights utilizing the airport are domestic operations to Eilat and Tel Aviv.

AT EILAT AIRPORT YOU CAN FIND A SINGLE RUNWAY (16/34).

Scenery:

Sim Download Size Author
P3D & FSX LLHA Haifa v1.1 16.9MB Freeware Niv Tesler + Bar Rodoy
P3D & FSX ICVFR Haifa 32.8MB Freeware Chris Bell

Charts:

File Name
General Aerodrome Chart
Ground Parkings Chart
Ground Parkings G
Ground Parkings N
CVFR Entrance, and exit CVFR
CVFR Training Zones Chart
CVFR Traffic Pattrens Chart

METAR & TAF:

Available data for LLHA from the past hour
HAIFA (ISR-AFB)
Metar
LLHA 201450Z VRB01KT CAVOK 16/05 Q1019

14:50 UTC

Wind: ° 1kt

Visibility:

Sky:

Temp: 16 deg C / 60.8 deg F

Dewpoint: 5 deg C / 41 deg F

Pressure: 1019 hPa

TAF
TAF LLHA 201103Z 2012/2112 12012KT CAVOK PROB40 2018/2108 13015G25KT TX17/2012Z TN07/2104Z